www.pogodaiklimat.ru

Погода и климат >> Архив погоды >> Россия >> Ярославская область >> Рыбинск


АРХИВ ПОГОДЫ в Рыбинске

Время (UTC), дата Ветер
(напр.,м/с)
 
Видим.   Явления Облачность Т
(С)
Тd
(С)
f
(%)
Тe
(С)
Тes
(С)
Комфортность P
(гПа)
Po
(гПа)
Тmin
(С)
Tmax
(С)
R
(мм)
R24
(мм)
S
(см)
15 11.07 СЗ 2 20 км 8/1 300 м
[Cu med, cong Ci sp]
+24.4 +15.0 56 +27 +30 жарко 1015.9 1003.7 +25.3
18 11.07 СЗ 1 10 км 3/0
[Ci fib]
+19.7 +15.9 79 +23 +23 комфорт 1016.3 1003.9
21 11.07 штиль 0 10 км 4/0
[Ci sp]
+15.8 +14.6 93 +16 +16 по сезону 1016.8 1004.2
00 12.07 штиль 0 10 км 4/0
[Ci sp]
+14.5 +13.6 94 +14 +14 по сезону 1016.5 1003.9
03 12.07 З 1 13 км 8/8 600 м
[Sc]
+15.8 +13.8 88 +16 +17 по сезону 1016.6 1004.1 +13.8
06 12.07 С 2 14 км 8/4 600 м
[Cu med, cong Ac trans]
+21.5 +14.1 63 +24 +27 комфорт 1016.2 1004.0
09 12.07 СЗ 1 16 км 9/6 600 м
[Cu med, cong Ac trans]
+23.3 +14.8 59 +27 +31 душно 1016.0 1003.8
12 12.07 СЗ 2 18 км 6/6 600 м
[Cu med, cong]
+24.2 +14.6 55 +27 +31 жарко 1015.2 1003.1
15 12.07 С 2 19 км 4/4 600 м
[Cu med, cong]
+23.3 +15.4 61 +28 +29 душно 1014.5 1002.3 +24.4
18 12.07 СВ 1 10 км {гроза} 6/6 300 м
[Sc]
+19.0 +15.3 79 +21 +21 комфорт 1014.6 1002.3
21 12.07 С 2 10 км 8/8 300 м
[Sc]
+18.6 +15.8 84 +20 +20 тепло 1014.2 1001.9
00 13.07 С 1 10 км 8/8 300 м
[Sc]
+17.6 +15.9 90 +19 +19 тепло 1013.9 1001.5
03 13.07 СВ 1 12 км 10/0
[As op]
+17.7 +15.7 88 +19 +19 тепло 1013.4 1001.1 +17.0
06 13.07 С 1 10 км в посл. час ливневой дождь 10/10 600 м
[Cu med, cong]
+19.5 +17.1 86 +23 +23 комфорт 1012.9 1000.7
09 13.07 СЗ 2 14 км 6/6 600 м
[Cu med, cong]
+20.8 +15.8 73 +25 +30 комфорт 1012.4 1000.2
12 13.07 С 1 16 км 6/6 600 м
[Cu med, cong]
+23.3 +16.6 66 +28 +33 душно 1011.6 999.5
15 13.07 СЗ 2 14 км 4/4 600 м
[Cu med, cong]
+22.2 +16.7 71 +27 +28 душно 1010.9 998.8 +23.7 2
18 13.07 З 1 10 км 8/8 300 м
[Cu med, cong]
+19.8 +16.7 82 +23 +23 комфорт 1010.8 998.6
21 13.07 штиль 0 10 км 4/0
[Ci fib]
+17.5 +16.0 91 +17 +17 по сезону 1010.8 998.5
00 14.07 ЮВ 1 500 м туман ?/? +16.8 +15.9 94 +18 +18 тепло 1010.9 998.4
03 14.07 ЮВ 1 500 м туман ?/? +17.1 +16.2 94 +18 +18 по сезону 1010.8 998.4 +16.8
06 14.07 В 1 8000 м дымка {туман} 10/0
[As op]
+17.7 +16.7 94 +19 +21 по сезону 1010.7 998.4
09 14.07 СВ 1 12 км 10/10 300 м
[Sc]
+21.4 +17.0 76 +25 +25 комфорт 1010.6 998.4
12 14.07 СВ 1 10 км гроза, ливневой дождь 10/10 300 м
[Cb cap]
+20.4 +18.2 87 +25 +25 комфорт 1009.9 997.7
15 14.07 СВ 2 15 км {гроза, ливн. осадки} 6/4 600 м
[Cu med, cong Ci sp]
+23.3 +17.1 68 +28 +30 душно 1009.1 997.0 +24.8 3
18 14.07 штиль 0 10 км {гроза, ливн. осадки} 4/4 600 м
[Cu med, cong]
+19.9 +17.7 87 +22 +22 комфорт 1009.2 997.0
21 14.07 ЮВ 1 10 км 4/4 300 м
[Sc]
+17.1 +15.4 90 +18 +18 по сезону 1010.1 997.8
00 15.07 штиль 0 10 км 3/0
[Ci fib]
+15.6 +14.4 93 +15 +15 по сезону 1010.3 997.9
03 15.07 В 1 13 км 3/0
[Ci fib]
+19.0 +16.0 83 +21 +23 комфорт 1010.4 998.1 +15.4
06 15.07 СВ 1 18 км 4/3 300 м
[Cu hum Ci fib]
+22.6 +17.1 71 +27 +34 душно 1010.6 998.5
09 15.07 С 2 22 км 6/6 300 м
[Cu med, cong]
+25.3 +18.5 66 +30 +36 душно 1010.5 998.5
12 15.07 СЗ 2 20 км 6/6 300 м
[Cu med, cong]
+26.1 +18.2 62 +31 +35 очень
душно
1010.1 998.1
15 15.07 С 1 20 км 6/4 300 м
[Cu med, cong Ci fib]
+26.2 +16.7 56 +30 +32 душно 1010.0 998.1 +27.0
18 15.07 С 1 10 км 3/0
[Ci fib]
+22.1 +18.1 78 +27 +27 душно 1010.8 998.7
21 15.07 СВ 1 10 км 3/0
[Ci fib]
+20.2 +18.0 87 +25 +25 комфорт 1011.4 999.2
00 16.07 штиль 0 н/о н/о +18.8 +16.9 89 +20 +20 тепло 1011.8 999.4
03 16.07 В 1 12 км 6/0
[Ci fib]
+21.3 +16.9 76 +25 +26 комфорт 1012.2 1000.0 +18.3
06 16.07 В 2 14 км 3/0
[Ci fib]
+25.4 +18.1 64 +30 +38 душно 1012.1 1000.1
09 16.07 С 1 21 км 8/8 600 м
[Cu med, cong]
+26.7 +18.6 61 +32 +35 очень
душно
1011.7 999.8
12 16.07 С 2 20 км {ливн. осадки} 6/6 600 м
[Cu med, cong]
+28.6 +18.1 53 +33 +37 очень
душно
1011.2 999.4
15 16.07 СВ 1 18 км {ливн. осадки} 4/4 600 м
[Cu med, cong]
+26.5 +17.8 59 +31 +33 душно 1011.0 999.0 +28.7 5
18 16.07 СВ 2 10 км {ливн. осадки} 3/0
[Ci fib]
+23.4 +16.5 65 +28 +28 душно 1011.8 999.7
21 16.07 СВ 2 10 км 4/3
[Sc Ci fib]
+21.4 +15.9 71 +25 +25 комфорт 1012.2 999.9
00 17.07 СВ 2 10 км ясно +20.1 +16.1 78 +23 +23 комфорт 1012.1 999.8
03 17.07 СВ 3 15 км 6/0
[Ci fib]
+21.0 +16.4 75 +25 +26 комфорт 1012.0 999.8 +19.6
06 17.07 В 2 14 км 3/3 600 м
[Cu hum Ci fib]
+24.7 +18.2 67 +29 +35 душно 1011.6 999.6
09 17.07 СВ 4 14 км 6/6 600 м
[Cu med, cong]
+26.8 +17.3 56 +31 +35 душно 1010.8 998.9
12 17.07 СВ 3 15 км 6/6 600 м
[Cu med, cong]
+27.8 +16.4 50 +31 +35 душно 1010.2 998.3
15 17.07 СВ 4 15 км 6/6 600 м
[Cu med, cong]
+26.8 +16.4 53 +30 +31 душно 1009.2 997.3 +28.1
18 17.07 СВ 2 10 км 1/0
[Ci fib]
+23.4 +15.2 60 +28 +28 душно 1009.9 997.8
21 17.07 СВ 2 10 км ясно +20.6 +14.9 70 +24 +24 комфорт 1010.0 997.8
00 18.07 СВ 3 10 км ясно +19.7 +13.2 66 +22 +22 комфорт 1009.2 997.0
03 18.07 СВ 3 13 км 3/0
[Ci fib]
+19.6 +13.8 69 +22 +23 комфорт 1008.8 996.6 +19.1
06 18.07 СВ 2
{10}
12 км 9/9 300 м
[Sc]
+21.1 +15.6 71 +24 +25 комфорт 1008.9 996.7
09 18.07 СВ 4 14 км {ливн. осадки} 6/6 300 м
[Cu med, cong]
+23.9 +16.2 62 +27 +31 жарко 1007.9 995.8
12 18.07 В 3
{11}
14 км {ливн. осадки} 9/9 300 м
[Cu med, cong]
+24.5 +16.5 61 +28 +29 душно 1007.7 995.7

 

Местоположение метеостанции Рыбинск (Ярославская область, Россия): широта 58.10 долгота 38.68 высота над уровнем моря 105 м.

В архиве по умолчанию представлена погода в Рыбинске за последнюю неделю. Архивные данные за месяц целиком и за предыдущие месяцы, начиная с января 2011 года, Вы можете получить, выбрав интересующий диапазон дат из раскрывающегося списка и нажав кнопку "Ввод!".


*Определитесь, кто Вы:
робот инопланетянин человек

Внимание! Время в таблицах - всемирное. Для получения местного времени необходимо прибавить поправку, которая в Рыбинске равна 3 ч.

Смотрите также архив погоды в соседних городах и на ближайших метеорологических станциях:

Погода в Борке (Ярославская область, Россия) (26 км)
Погода в Мышкине (Ярославская область, Россия) (38 км)
Погода в Большом Селе (Ярославская область, Россия) (45 км)
Погода в Пошехонье (Ярославская область, Россия) (50 км)
Погода в Брейтово (Ярославская область, Россия) (53 км)
Погода в Тутаеве (Ярославская область, Россия) (55 км)
Погода в Угличе (Ярославская область, Россия) (70 км)
Погода в Данилове (Ярославская область, Россия) (89 км)
Погода в Ярославле-Музее (Ярославская область, Россия) (89 км)
Погода в Ярославле (Ярославская область, Россия) (89 км)

Пояснения к столбцам:

Ветер - указаны скорость ветра в м/с - средняя за 10 мин, порывы в срок и между сроками (в фигурных скобках) и направление, откуда дует ветер: С - северный, СВ - северо-восточный, В - восточный, ЮВ - юго-восточный, Ю - южный, ЮЗ - юго-западный, З - западный, СЗ - северо-западный.
Видимость - горизонтальная дальность видимости в метрах или километрах. При видимости от 1 до 10 км при отсутствии осадков обычно наблюдается дымка, при ухудшении видимости до 1 км и менее - туман. В сухую погоду видимость может ухудшаться дымом, пылью или мглою.
Явления - указаны атмосферные явления, наблюдавшиеся в срок или в последний час перед сроком; фигурными скобками обозначены явления, наблюдавшиеся между сроками (за 1-3 часа до срока); квадратными скобками обозначены град или гололедные отложения с указанием их диаметра в мм.
Облачность - указаны через наклонную черту общая и нижняя облачность в баллах и высота нижней границы облаков в метрах; квадратными скобками обозначены формы облаков: Ci - перистые, Cs - перисто-слоистые, Cc - перисто-кучевые, Ac - высококучевые, As - высокослоистые, Sc - слоисто-кучевые, Ns - слоисто-дождевые, Cu - кучевые, Cb - кучево-дождевые. Подробнее классификацию облаков см. в Атласе облаков (PDF).
T - Температура воздуха - температура, измеренная на высоте 2 м над землей.
Td - Температура точки росы - температура, при понижении до которой содержащийся в воздухе водяной пар достигнет насыщения.
f - Относительная влажность воздуха - влажноcть воздуха, измеренная на высоте 2 м над землей.
Te - Эффективная температура - температура, которую ощущает одетый по сезону человек в тени. Характеристика душности погоды. При расчете учитывается влияние влажности воздуха и скорости ветра на теплоощущения человека.
Tes - Эффективная температура на солнце - температура, которую ощущает человек, с поправкой на солнечный нагрев. Характеристика знойности погоды. Зависит от высоты солнца над горизонтом, облачности и скорости ветра. Ночью, в пасмурную погоду, а также при ветре 12 м/с и более поправка равна нулю.
P - Атмосферное давление - приведенное к уровню моря атмосферное давление.
Po - Атмосферное давление - измеренное на уровне метеостанции атмосферное давление.
Tmin - Минимальная температура - минимум температуры воздуха на высоте 2 м над землей.
Tmax - Максимальная температура - максимум температуры воздуха на высоте 2 м над землей.
R - Количество осадков - Количество выпавших осадков за период времени, мм. При наведении курсора мыши на число - период времени, за который выпало указанное количество осадков.
R24 - Количество осадков - Количество выпавших осадков за 24 часа, мм.
S - Снежный покров - Высота снежного покрова, см. При наведении курсора мыши на число - состояние снежного покрова и степень покрытия местности в баллах.